Location: Maddington
(51.2000°N, 1.9167°W)
Time: 01:02:03
(UTC+00:00)

Cosmos 1125 Rocket - Visible Passes

Search period start: 24 January 2021 00:00
Search period end: 03 February 2021 00:00
Orbit: 757 x 780 km, 74.0° (Epoch: 23 January)

Date Brightness Start Highest point End Pass type
(mag) Time Alt. Az. Time Alt. Az. Time Alt. Az.
24 Jan 6.3 03:28:44 11° NNE 03:29:20 11° NNE 03:30:49 10° NE visible
24 Jan 4.8 05:09:02 15° N 05:13:02 39° NE 05:18:00 10° SE visible
24 Jan 4.0 06:50:13 10° NW 06:55:08 39° WSW 07:00:02 10° S visible
25 Jan 5.4 04:33:07 18° N 04:35:54 27° NE 04:40:24 10° ESE visible
25 Jan 3.5 06:13:25 11° NNW 06:18:23 62° WSW 06:23:37 10° S visible
26 Jan 5.8 03:57:17 18° NNE 03:58:39 20° NE 04:02:31 10° E visible
26 Jan 3.5 05:37:36 19° NNW 05:41:33 87° ENE 05:46:52 10° SSE visible
27 Jan 6.2 03:21:33 15° NE 03:21:33 15° NE 03:24:15 10° ENE visible
27 Jan 4.0 05:01:52 27° N 05:04:37 57° ENE 05:09:51 10° SE visible
27 Jan 4.5 06:42:10 11° NW 06:46:20 26° W 06:50:39 10° SSW visible
27 Jan 5.2 19:41:53 10° S 19:43:28 20° S 19:43:28 20° S visible
28 Jan 4.8 04:26:14 33° NNE 04:27:34 39° NE 04:32:32 10° SE visible
28 Jan 4.0 06:06:33 20° NW 06:09:41 40° WSW 06:14:36 10° S visible
28 Jan 4.4 19:05:29 10° S 19:08:41 30° SE 19:08:41 30° SE visible
28 Jan 5.7 20:47:25 10° SW 20:49:03 19° WSW 20:49:03 19° WSW visible
29 Jan 5.4 03:50:44 27° NE 03:50:44 27° NE 03:54:56 10° ESE visible
29 Jan 3.5 05:31:04 39° NW 05:32:56 62° WSW 05:38:10 10° S visible
29 Jan 4.5 18:29:29 10° SSE 18:33:38 24° E 18:33:51 24° E visible
29 Jan 4.3 20:10:08 10° SW 20:14:13 49° WSW 20:14:13 49° WSW visible
30 Jan 6.1 03:15:23 16° ENE 03:15:23 16° ENE 03:17:02 10° E visible
30 Jan 3.4 04:55:43 78° N 04:56:06 86° ENE 05:01:26 10° SSE visible
30 Jan 5.0 06:36:04 15° WNW 06:37:27 17° W 06:40:43 10° SW visible
30 Jan 5.0 17:54:06 10° SE 17:57:06 15° E 17:58:56 13° ENE visible
30 Jan 3.4 19:33:08 10° SSW 19:38:23 90° WNW 19:39:18 62° NNE visible
30 Jan 6.0 21:17:22 10° W 21:19:39 18° WNW 21:19:39 18° WNW visible
31 Jan 4.5 04:20:31 44° ESE 04:20:31 44° ESE 04:24:24 10° SE visible
31 Jan 4.4 06:00:53 26° W 06:00:54 26° W 06:05:13 10° SSW visible
31 Jan 3.5 18:56:25 10° S 19:01:33 59° ESE 19:04:16 28° NE visible
31 Jan 5.3 20:39:30 10° WSW 20:44:01 28° NW 20:44:37 27° NW visible
01 Feb 5.8 03:45:29 19° ESE 03:45:29 19° ESE 03:47:04 10° ESE visible
01 Feb 4.4 05:25:50 32° SW 05:25:50 32° SW 05:29:10 10° S visible
01 Feb 4.0 18:20:02 10° S 18:24:49 37° ESE 18:29:05 13° NE visible
01 Feb 4.7 20:01:57 10° SW 20:06:53 40° NW 20:09:26 25° N visible
01 Feb 6.5 21:48:56 10° NW 21:49:46 11° NW 21:49:46 11° NW visible
02 Feb 5.2 04:50:55 22° S 04:50:55 22° S 04:52:43 10° S visible
02 Feb 4.6 17:44:03 10° SSE 17:48:11 24° E 17:52:21 10° NE visible
02 Feb 4.0 19:24:40 10° SW 19:29:51 60° WNW 19:34:06 16° NNE visible
02 Feb 6.1 21:10:06 10° WNW 21:13:07 15° NW 21:14:26 14° NNW visible
